• In Uzbekistan
  • List of Countries
  • For 7 days
  • Water Temperature
  • Satellite Maps
  • Weather Map
  • Weather Widgets
  • user-avatar
    Login

    Hourly Weather Dorog

    Today, 25 September, Monday

    Time Temperature Precipitation Wind Pressure Humidity
    00:00 +10°C° 0 mm 0 mps 751 mmHg 86%
    01:00 +10°C° 0 mm 0 mps 751 mmHg 88%
    02:00 +10°C° 0 mm 0 mps 751 mmHg 88%
    03:00 +10°C° 0 mm 0 mps 751 mmHg 89%
    04:00 +11°C° 0 mm 1 mps 751 mmHg 89%
    05:00 +11°C° 0 mm 1 mps 751 mmHg 87%
    06:00 +12°C° 0 mm 1 mps 751 mmHg 86%
    07:00 +12°C° 0 mm 1 mps 751 mmHg 82%
    08:00 +14°C° 0 mm 1 mps 751 mmHg 76%
    09:00 +15°C° 0 mm 2 mps 751 mmHg 70%
    10:00 +17°C° 0 mm 2 mps 751 mmHg 64%
    11:00 +18°C° 0 mm 2 mps 751 mmHg 62%
    12:00 +18°C° 0 mm 2 mps 751 mmHg 59%
    13:00 +19°C° 0 mm 3 mps 751 mmHg 57%
    14:00 +19°C° 0 mm 3 mps 751 mmHg 57%
    15:00 +19°C° 0 mm 2 mps 751 mmHg 57%
    16:00 +19°C° 0 mm 2 mps 751 mmHg 58%
    17:00 +17°C° 0 mm 2 mps 751 mmHg 63%
    18:00 +16°C° 0 mm 2 mps 751 mmHg 68%
    19:00 +15°C° 0 mm 2 mps 751 mmHg 73%
    20:00 +15°C° 0 mm 2 mps 752 mmHg 74%
    21:00 +14°C° 0 mm 2 mps 752 mmHg 76%
    22:00 +14°C° 0 mm 2 mps 752 mmHg 77%
    23:00 +14°C° 0 mm 2 mps 752 mmHg 78%

    Tomorrow, 26 September, Tuesday

    Time Temperature Precipitation Wind Pressure Humidity
    00:00 +14°C° 0 mm 2 mps 752 mmHg 78%
    01:00 +13°C° 0 mm 2 mps 752 mmHg 78%
    02:00 +13°C° 0 mm 2 mps 752 mmHg 78%
    03:00 +13°C° 0 mm 2 mps 752 mmHg 78%
    04:00 +13°C° 0 mm 2 mps 752 mmHg 77%
    05:00 +14°C° 0 mm 2 mps 752 mmHg 76%
    06:00 +14°C° 0 mm 2 mps 752 mmHg 75%
    07:00 +14°C° 0 mm 2 mps 752 mmHg 73%
    08:00 +16°C° 0 mm 2 mps 753 mmHg 67%
    09:00 +18°C° 0 mm 3 mps 753 mmHg 61%
    10:00 +20°C° 0 mm 3 mps 753 mmHg 55%
    11:00 +21°C° 0 mm 3 mps 753 mmHg 52%
    12:00 +22°C° 0 mm 3 mps 752 mmHg 49%
    13:00 +24°C° 0 mm 3 mps 752 mmHg 46%
    14:00 +24°C° 0 mm 3 mps 752 mmHg 48%
    15:00 +24°C° 0 mm 2 mps 752 mmHg 49%
    16:00 +24°C° 0 mm 2 mps 752 mmHg 51%
    17:00 +21°C° 0 mm 2 mps 752 mmHg 55%
    18:00 +20°C° 0 mm 2 mps 752 mmHg 60%
    19:00 +18°C° 0 mm 2 mps 752 mmHg 64%
    20:00 +17°C° 0 mm 2 mps 753 mmHg 66%
    21:00 +17°C° 0 mm 2 mps 753 mmHg 67%
    22:00 +16°C° 0 mm 2 mps 753 mmHg 69%
    23:00 +16°C° 0 mm 2 mps 753 mmHg 70%

    Day after tomorrow, 27 September, Wednesday

    Time Temperature Precipitation Wind Pressure Humidity
    00:00 +16°C° 0 mm 2 mps 753 mmHg 71%
    01:00 +15°C° 0 mm 2 mps 753 mmHg 72%
    02:00 +15°C° 0 mm 2 mps 753 mmHg 73%
    03:00 +15°C° 0 mm 2 mps 753 mmHg 74%
    04:00 +13°C° 0 mm 3 mps 753 mmHg 74%
    05:00 +13°C° 0 mm 3 mps 753 mmHg 72%
    06:00 +14°C° 0 mm 3 mps 754 mmHg 70%
    07:00 +14°C° 0 mm 3 mps 754 mmHg 68%
    08:00 +16°C° 0 mm 3 mps 754 mmHg 62%
    09:00 +18°C° 0 mm 3 mps 754 mmHg 55%
    10:00 +20°C° 0 mm 3 mps 755 mmHg 49%
    11:00 +21°C° 0 mm 3 mps 755 mmHg 46%
    12:00 +22°C° 0 mm 3 mps 754 mmHg 42%
    13:00 +22°C° 0 mm 3 mps 754 mmHg 39%
    14:00 +22°C° 0 mm 3 mps 754 mmHg 40%
    15:00 +22°C° 0 mm 3 mps 754 mmHg 41%
    16:00 +22°C° 0 mm 3 mps 754 mmHg 41%
    17:00 +20°C° 0 mm 2 mps 754 mmHg 44%
    18:00 +18°C° 0 mm 2 mps 754 mmHg 47%
    19:00 +17°C° 0 mm 2 mps 754 mmHg 49%
    20:00 +16°C° 0 mm 2 mps 754 mmHg 51%
    21:00 +16°C° 0 mm 2 mps 755 mmHg 53%
    22:00 +15°C° 0 mm 2 mps 755 mmHg 55%
    23:00 +15°C° 0 mm 2 mps 755 mmHg 57%

    28 September, Thursday

    Time Temperature Precipitation Wind Pressure Humidity
    00:00 +14°C° 0 mm 2 mps 755 mmHg 59%
    01:00 +14°C° 0 mm 2 mps 755 mmHg 61%
    02:00 +13°C° 0 mm 2 mps 755 mmHg 62%
    03:00 +13°C° 0 mm 2 mps 755 mmHg 64%
    04:00 +13°C° 0 mm 1 mps 755 mmHg 65%
    05:00 +13°C° 0 mm 1 mps 755 mmHg 65%
    06:00 +13°C° 0 mm 2 mps 756 mmHg 65%
    07:00 +13°C° 0 mm 2 mps 756 mmHg 65%
    08:00 +15°C° 0 mm 2 mps 756 mmHg 59%
    09:00 +17°C° 0 mm 2 mps 756 mmHg 53%
    10:00 +19°C° 0 mm 2 mps 756 mmHg 47%
    11:00 +20°C° 0 mm 2 mps 756 mmHg 45%
    12:00 +21°C° 0 mm 2 mps 756 mmHg 42%
    13:00 +21°C° 0 mm 2 mps 755 mmHg 40%
    14:00 +21°C° 0 mm 2 mps 755 mmHg 41%
    15:00 +21°C° 0 mm 2 mps 755 mmHg 42%
    16:00 +21°C° 0 mm 2 mps 755 mmHg 43%
    17:00 +19°C° 0 mm 2 mps 755 mmHg 48%
    18:00 +18°C° 0 mm 2 mps 755 mmHg 52%
    19:00 +16°C° 0 mm 2 mps 755 mmHg 56%
    20:00 +15°C° 0 mm 2 mps 755 mmHg 58%
    21:00 +15°C° 0 mm 2 mps 755 mmHg 59%
    22:00 +14°C° 0 mm 2 mps 755 mmHg 61%
    23:00 +14°C° 0 mm 2 mps 755 mmHg 62%

    29 September, Friday

    Time Temperature Precipitation Wind Pressure Humidity
    00:00 +13°C° 0 mm 2 mps 755 mmHg 64%
    01:00 +13°C° 0 mm 2 mps 755 mmHg 65%
    02:00 +12°C° 0 mm 2 mps 755 mmHg 67%
    03:00 +12°C° 0 mm 2 mps 755 mmHg 69%
    04:00 +12°C° 0 mm 2 mps 755 mmHg 71%
    05:00 +12°C° 0 mm 2 mps 755 mmHg 70%
    06:00 +12°C° 0 mm 2 mps 755 mmHg 70%
    07:00 +12°C° 0 mm 2 mps 755 mmHg 70%
    08:00 +14°C° 0 mm 2 mps 755 mmHg 63%
    09:00 +16°C° 0 mm 2 mps 755 mmHg 56%
    10:00 +17°C° 0 mm 2 mps 755 mmHg 49%
    11:00 +18°C° 0 mm 2 mps 755 mmHg 46%
    12:00 +20°C° 0 mm 1 mps 754 mmHg 43%
    13:00 +21°C° 0 mm 1 mps 754 mmHg 40%
    14:00 +21°C° 0 mm 1 mps 754 mmHg 40%
    15:00 +21°C° 0 mm 1 mps 753 mmHg 41%
    16:00 +21°C° 0 mm 1 mps 753 mmHg 42%
    17:00 +19°C° 0 mm 1 mps 753 mmHg 46%
    18:00 +18°C° 0 mm 1 mps 753 mmHg 50%
    19:00 +15°C° 0 mm 1 mps 753 mmHg 54%
    20:00 +15°C° 0 mm 1 mps 753 mmHg 56%
    21:00 +14°C° 0 mm 1 mps 753 mmHg 57%
    22:00 +14°C° 0 mm 1 mps 753 mmHg 59%
    23:00 +13°C° 0 mm 1 mps 753 mmHg 60%

    30 September, Saturday

    Time Temperature Precipitation Wind Pressure Humidity
    00:00 +13°C° 0 mm 1 mps 752 mmHg 62%
    01:00 +12°C° 0 mm 1 mps 752 mmHg 63%
    02:00 +12°C° 0 mm 1 mps 752 mmHg 64%
    03:00 +12°C° 0 mm 1 mps 752 mmHg 65%
    04:00 +11°C° 0 mm 1 mps 752 mmHg 66%
    05:00 +12°C° 0 mm 1 mps 752 mmHg 66%
    06:00 +12°C° 0 mm 1 mps 752 mmHg 65%
    07:00 +12°C° 0 mm 1 mps 751 mmHg 64%
    08:00 +14°C° 0 mm 1 mps 751 mmHg 58%
    09:00 +15°C° 0 mm 1 mps 751 mmHg 53%
    10:00 +18°C° 0 mm 1 mps 751 mmHg 47%
    11:00 +19°C° 0 mm 1 mps 751 mmHg 45%
    12:00 +20°C° 0 mm 1 mps 750 mmHg 43%
    13:00 +19°C° 0 mm 0 mps 750 mmHg 42%
    14:00 +18°C° 0 mm 0 mps 750 mmHg 43%
    15:00 +18°C° 0 mm 0 mps 749 mmHg 44%
    16:00 +18°C° 0 mm 0 mps 749 mmHg 45%
    17:00 +17°C° 0 mm 0 mps 749 mmHg 48%
    18:00 +18°C° 0 mm 1 mps 749 mmHg 51%
    19:00 +15°C° 0 mm 1 mps 749 mmHg 54%
    20:00 +15°C° 0.1 mm 1 mps 749 mmHg 56%
    21:00 +15°C° 0.1 mm 1 mps 749 mmHg 57%
    22:00 +15°C° 0.1 mm 2 mps 749 mmHg 59%
    23:00 +14°C° 0.8 mm 2 mps 749 mmHg 63%
    Show more